Weather History for KEUL - August, 2013

Change the Weather History Date:

Tuesday, August 6, 2013

  Actual Average (KBOI) Record (KBOI)
Temperature  
Mean Temperature 78 °F 77 °F  
Max Temperature 93 °F 92 °F 109 °F (1990)
Min Temperature 62 °F 62 °F 43 °F (1969)
Degree Days  
Heating Degree Days 0 0  
Month to date heating degree days 0  
Since 1 June heating degree days 72  
Since 1 July heating degree days 8  
Cooling Degree Days 12 12  
Month to date cooling degree days 72  
Year to date cooling degree days 597  
Since 1 June cooling degree days 553  
Growing Degree Days 28 (Base 50)    
Moisture  
Dew Point 44 °F    
Average Humidity 31    
Maximum Humidity 48    
Minimum Humidity 14    
Precipitation  
Precipitation 0.00 in 0.00 in 0.91 in (2009)
Month to date precipitation 0.04  
Year to date precipitation 7.30  
Snow  
Snow 0.00 in 0.00 in 0.00 in (2006)
Month to date snowfall 0.0  
Since 1 July snowfall 0.0  
Snow Depth -    
Sea Level Pressure  
Sea Level Pressure 29.95 in    
Wind  
Wind Speed 8 mph (NW)    
Max Wind Speed 13 mph    
Max Gust Speed 17 mph    
Visibility 10 miles    
Events      
T = Trace of Precipitation, MM = Missing Value Source: NWS Daily Summary

Daily Weather History Graph

Daily Weather History Graph

Search for Another Location

Airport or City:

Trip Planner

Search our weather history database for the weather conditions in past years. The results will help you decide how hot, cold, wet, or windy it might be!

Date:

Astronomy

Aug. 06, 2013 Rise Set
Actual Time 6:41 AM MDT 9:02 PM MDT
Civil Twilight 6:09 AM MDT 9:34 PM MDT
Nautical Twilight 5:29 AM MDT 10:14 PM MDT
Astronomical Twilight 4:45 AM MDT 10:58 PM MDT
Moon 6:39 AM MDT (8/6) 8:36 PM MDT (8/6)
Length of Visible Light 15h 25m
Length of Day
14h 21m
Waning Crescent, 0% of the Moon is Illuminated
Aug 6
Waning Crescent
Aug 6
New
Aug 14
First Quarter
Aug 20
Full
Aug 28
Last Quarter

Hourly Weather History & Observations

Time (MDT) Temp. Dew Point Humidity Pressure Visibility Wind Dir Wind Speed Gust Speed Precip Events Conditions
12:15 AM 77.0 °F 42.8 °F 29% 29.88 in 10.0 mi NW 11.5 mph - N/A   Clear
12:35 AM 73.4 °F 44.6 °F 36% 29.89 in 10.0 mi WNW 11.5 mph - N/A   Clear
12:55 AM 73.4 °F 44.6 °F 36% 29.90 in 10.0 mi WNW 12.7 mph - N/A   Clear
1:15 AM 73.4 °F 42.8 °F 33% 29.90 in 10.0 mi WNW 12.7 mph - N/A   Clear
1:35 AM 71.6 °F 42.8 °F 35% 29.91 in 10.0 mi WNW 8.1 mph - N/A   Clear
1:55 AM 71.6 °F 42.8 °F 35% 29.92 in 10.0 mi WNW 11.5 mph - N/A   Clear
2:15 AM 71.6 °F 42.8 °F 35% 29.92 in 10.0 mi WNW 11.5 mph - N/A   Clear
2:35 AM 71.6 °F 42.8 °F 35% 29.92 in 10.0 mi WNW 11.5 mph - N/A   Clear
2:55 AM 71.6 °F 42.8 °F 35% 29.92 in 10.0 mi WNW 11.5 mph - N/A   Clear
3:15 AM 69.8 °F 42.8 °F 38% 29.93 in 10.0 mi WNW 10.4 mph - N/A   Clear
3:35 AM 69.8 °F 42.8 °F 38% 29.93 in 10.0 mi WNW 9.2 mph - N/A   Clear
3:55 AM 66.2 °F 42.8 °F 43% 29.93 in 10.0 mi WNW 8.1 mph - N/A   Clear
4:15 AM 66.2 °F 42.8 °F 43% 29.94 in 10.0 mi WNW 8.1 mph - N/A   Clear
4:35 AM 64.4 °F 42.8 °F 45% 29.94 in 10.0 mi WNW 9.2 mph - N/A   Clear
4:55 AM 64.4 °F 42.8 °F 45% 29.95 in 10.0 mi WNW 9.2 mph - N/A   Clear
5:15 AM 64.4 °F 42.8 °F 45% 29.95 in 10.0 mi WNW 5.8 mph - N/A   Clear
5:35 AM 64.4 °F 41.0 °F 42% 29.96 in 10.0 mi Calm Calm - N/A   Clear
5:55 AM 64.4 °F 42.8 °F 45% 29.96 in 10.0 mi NW 4.6 mph - N/A   Clear
6:15 AM 64.4 °F 42.8 °F 45% 29.97 in 10.0 mi NW 4.6 mph - N/A   Clear
6:35 AM 62.6 °F 42.8 °F 48% 29.98 in 10.0 mi WNW 5.8 mph - N/A   Clear
6:55 AM 62.6 °F 42.8 °F 48% 29.98 in 10.0 mi WNW 4.6 mph - N/A   Clear
7:15 AM 64.4 °F 41.0 °F 42% 29.99 in 10.0 mi WNW 4.6 mph - N/A   Clear
7:35 AM 62.6 °F 42.8 °F 48% 29.99 in 10.0 mi Calm Calm - N/A   Clear
7:55 AM 64.4 °F 42.8 °F 45% 30.00 in 10.0 mi NW 6.9 mph - N/A   Clear
8:15 AM 66.2 °F 44.6 °F 46% 30.00 in 10.0 mi NNW 5.8 mph - N/A   Clear
8:35 AM 69.8 °F 44.6 °F 40% 30.01 in 10.0 mi North 3.5 mph - N/A   Clear
8:55 AM 71.6 °F 42.8 °F 35% 30.01 in 10.0 mi NNW 5.8 mph - N/A   Clear
9:15 AM 73.4 °F 44.6 °F 36% 30.01 in 10.0 mi NW 5.8 mph - N/A   Clear
9:35 AM 73.4 °F 44.6 °F 36% 30.01 in 10.0 mi NW 4.6 mph - N/A   Clear
9:55 AM 75.2 °F 44.6 °F 34% 30.02 in 10.0 mi NW 6.9 mph - N/A   Clear
10:15 AM 77.0 °F 46.4 °F 34% 30.02 in 10.0 mi NW 5.8 mph - N/A   Clear
10:35 AM 78.8 °F 46.4 °F 32% 30.02 in 10.0 mi NW 4.6 mph - N/A   Clear
10:55 AM 80.6 °F 46.4 °F 30% 30.02 in 10.0 mi NW 5.8 mph - N/A   Clear
11:15 AM 80.6 °F 48.2 °F 32% 30.02 in 10.0 mi NNW 6.9 mph - N/A   Clear
11:35 AM 82.4 °F 48.2 °F 30% 30.02 in 10.0 mi NNW 5.8 mph - N/A   Clear
11:55 AM 82.4 °F 48.2 °F 30% 30.01 in 10.0 mi North 5.8 mph - N/A   Clear
12:15 PM 84.2 °F 48.2 °F 29% 30.01 in 10.0 mi WNW 3.5 mph - N/A   Clear
12:35 PM 84.2 °F 48.2 °F 29% 30.01 in 10.0 mi NNW 4.6 mph - N/A   Clear
12:55 PM 87.8 °F 48.2 °F 25% 30.00 in 10.0 mi North 5.8 mph - N/A   Clear
1:15 PM 87.8 °F 48.2 °F 25% 30.00 in 10.0 mi NNW 5.8 mph - N/A   Clear
1:35 PM 89.6 °F 48.2 °F 24% 29.99 in 10.0 mi North 9.2 mph - N/A   Clear
1:55 PM 89.6 °F 42.8 °F 20% 29.99 in 10.0 mi NNW 6.9 mph - N/A   Clear
2:15 PM 89.6 °F 41.0 °F 18% 29.98 in 10.0 mi NW 8.1 mph - N/A   Clear
2:35 PM 91.4 °F 41.0 °F 17% 29.98 in 10.0 mi Calm Calm - N/A   Clear
2:55 PM 91.4 °F 42.8 °F 18% 29.97 in 10.0 mi North 6.9 mph - N/A   Clear
3:15 PM 91.4 °F 41.0 °F 17% 29.96 in 10.0 mi NNW 8.1 mph - N/A   Clear
3:35 PM 93.2 °F 41.0 °F 16% 29.96 in 10.0 mi North 10.4 mph - N/A   Clear
3:55 PM 93.2 °F 41.0 °F 16% 29.95 in 10.0 mi North 9.2 mph - N/A   Clear
4:15 PM 93.2 °F 41.0 °F 16% 29.94 in 10.0 mi NW 6.9 mph - N/A   Clear
4:35 PM 93.2 °F 42.8 °F 17% 29.93 in 10.0 mi NNW 10.4 mph - N/A   Clear
4:55 PM 93.2 °F 41.0 °F 16% 29.92 in 10.0 mi North 12.7 mph - N/A   Clear
5:15 PM 93.2 °F 41.0 °F 16% 29.92 in 10.0 mi North 11.5 mph 17.3 mph N/A   Clear
5:35 PM 93.2 °F 42.8 °F 17% 29.91 in 10.0 mi NNW 9.2 mph - N/A   Clear
5:55 PM 93.2 °F 39.2 °F 15% 29.90 in 10.0 mi NNE 8.1 mph - N/A   Clear
6:15 PM 93.2 °F 37.4 °F 14% 29.89 in 10.0 mi North 8.1 mph - N/A   Clear
6:35 PM 93.2 °F 37.4 °F 14% 29.89 in 10.0 mi NNE 8.1 mph - N/A   Clear
6:55 PM 93.2 °F 37.4 °F 14% 29.88 in 10.0 mi NE 6.9 mph - N/A   Clear
7:15 PM 93.2 °F 41.0 °F 16% 29.88 in 10.0 mi NE 4.6 mph - N/A   Clear
7:35 PM 93.2 °F 39.2 °F 15% 29.88 in 10.0 mi Calm Calm - N/A   Clear
7:55 PM 91.4 °F 41.0 °F 17% 29.88 in 10.0 mi Calm Calm - N/A   Clear
8:15 PM 91.4 °F 39.2 °F 16% 29.88 in 10.0 mi Calm Calm - N/A   Clear
8:35 PM 87.8 °F 42.8 °F 21% 29.88 in 10.0 mi Calm Calm - N/A   Clear
8:55 PM 84.2 °F 42.8 °F 23% 29.88 in 10.0 mi South 3.5 mph - N/A   Clear
9:15 PM 84.2 °F 42.8 °F 23% 29.89 in 10.0 mi SSW 3.5 mph - N/A   Clear
9:35 PM 80.6 °F 44.6 °F 28% 29.89 in 10.0 mi SW 3.5 mph - N/A   Clear
9:55 PM 75.2 °F 48.2 °F 38% 29.89 in 10.0 mi Calm Calm - N/A   Clear
10:15 PM 75.2 °F 44.6 °F 34% 29.90 in 10.0 mi Calm Calm - N/A   Clear
10:35 PM 71.6 °F 46.4 °F 41% 29.89 in 10.0 mi NE 8.1 mph - N/A   Clear
10:55 PM 71.6 °F 48.2 °F 43% 29.90 in 10.0 mi West 3.5 mph - N/A   Clear
11:15 PM 73.4 °F 48.2 °F 41% 29.91 in 10.0 mi NW 3.5 mph - N/A   Clear
11:35 PM 71.6 °F 48.2 °F 43% 29.89 in 10.0 mi NNE 4.6 mph - N/A   Clear
11:55 PM 69.8 °F 48.2 °F 46% 29.89 in 10.0 mi ENE 4.6 mph - N/A   Clear